Home > Time Zones > World Clock > Weather > Cuba > Havana > Past weeks

Flag for Cuba Weather past 2 weeks in Havana, Cuba

Now
79 °F

Passing clouds.


Feels Like: 80 °F
Forecast: N/A
Wind: 12 mph from Northeast

Location: Aeropuerto Jose Marti - Rancho-Boyeros - Habana

Current Time: Dec 19, 2014 at 4:30:03 PM

Latest Report: Dec 19, 2014 at 3:55 PM


Visibility: N/A

Pressure: 29.98 "Hg

Humidity: 54%

Dew point: 61 °F

Location of HavanaLocation

Historic Weather in Havana — Graph

°F

Havana temperature yesterday

Maximum temperature yesterday: 81 °F (at 12:55 PM)
Minimum temperature yesterday: 50 °F (at 5:55 AM)
Average temperature yesterday: 65 °F

Past Weeks' High & Low Weather Summary

 TemperatureHumidityPressure
High84 °F (Dec 5, 11:55 AM)94% (Dec 5, 4:55 AM)30.24 "Hg (Dec 5, 4:55 AM)
Low45 °F (Dec 11, 4:55 AM)41% (Dec 11, 1:55 PM)30.01 "Hg (Dec 4, 2:55 PM)
Average65 °F73%30.10 "Hg
* Reported Dec 4 2:55 PM — Dec 19 2:55 PM, Havana, Weather by CustomWeather, © 2014

Note: Actual official high and low records may vary slightly from our data, if they occured in-between our weather recording intervals... More about our weather records

Advertising

Havana weather history for previous 24 hours

 ConditionsComfort  
Time TempWeatherWind HumidityBarometerVisibility
2:55 PM
Dec 19
81 °FPassing clouds.7 mph42%30.01 "HgN/A
1:55 PM81 °FPassing clouds.6 mph42%30.01 "HgN/A
12:55 PM79 °FScattered clouds.8 mph48%30.04 "HgN/A
11:55 AM77 °FPassing clouds.10 mph54%30.07 "HgN/A
10:55 AM75 °FPassing clouds.9 mph57%30.09 "HgN/A
9:55 AM73 °FPassing clouds.7 mph61%30.09 "HgN/A
8:55 AM66 °FPassing clouds.1 mph88%30.09 "Hg5 mi
7:55 AM55 °FPassing clouds.5 mph88%30.07 "Hg4 mi
6:55 AM54 °FFog.No wind94%30.07 "Hg3 mi
5:55 AM54 °FCool.3 mph94%30.04 "Hg3 mi
4:55 AMN/A2 mphN/AN/A3 mi
3:55 AM55 °FClear.2 mph88%30.04 "Hg4 mi
2:55 AM59 °FClear.3 mph88%30.07 "Hg10 mi
1:55 AM61 °FClear.3 mph88%30.07 "Hg10 mi
12:55 AM63 °FClear.5 mph88%30.09 "Hg10 mi
11:55 PM
Dec 18
63 °FPassing clouds.3 mph83%30.09 "HgN/A
10:55 PM63 °FClear.5 mph83%30.09 "Hg10 mi
9:55 PM61 °FClear.6 mph88%30.09 "Hg10 mi
8:55 PM64 °FClear.6 mph83%30.09 "Hg10 mi
7:55 PM66 °FPassing clouds.10 mph78%30.09 "HgN/A
6:55 PM68 °FPassing clouds.7 mph78%30.07 "HgN/A
5:55 PM72 °FPassing clouds.12 mph69%30.07 "HgN/A
4:55 PM77 °FPassing clouds.14 mph57%30.04 "HgN/A
Weather by CustomWeather, © 2014

See weather overviewHow to use our weather pages